FW6349 Weather Reports


Display with metric or nautical units.
time (UTC)temp
F
wind
direction
speed
MPH
gust
MPH
rain 1hr
in
rain 24hr
in
rain mn
in
humidity
%
barometer
mb
20260502222816 64 213 2.0 2.0 0.00 0.00 0.00 37 1009.1
20260502221824 64 230 2.0 4.0 0.00 0.00 0.00 37 1009.1
20260502220816 65 248 4.0 7.0 0.00 0.00 0.00 37 1009.2
20260502215844 65 238 3.0 6.0 0.00 0.00 0.00 36 1009.3
20260502214816 65 254 4.0 7.0 0.00 0.00 0.00 36 1009.5
20260502213824 65 251 4.0 8.0 0.00 0.00 0.00 37 1009.4
20260502212836 65 214 3.0 4.0 0.00 0.00 0.00 37 1009.6
20260502211844 65 234 6.0 11.0 0.00 0.00 0.00 36 1009.9
20260502210816 66 270 5.0 8.0 0.00 0.00 0.00 36 1010.0
20260502205824 66 219 4.0 7.0 0.00 0.00 0.00 37 1010.1
20260502204856 66 230 5.0 11.0 0.00 0.00 0.00 36 1010.5
20260502203824 65 227 5.0 9.0 0.00 0.00 0.00 37 1010.6
20260502202836 66 255 4.0 14.0 0.00 0.00 0.00 36 1010.8
20260502201844 65 243 5.0 10.0 0.00 0.00 0.00 36 1011.2
20260502200816 65 218 5.0 13.0 0.00 0.00 0.00 36 1011.3
20260502195824 64 230 4.0 7.0 0.00 0.00 0.00 38 1011.5
20260502194816 64 216 3.0 7.0 0.00 0.00 0.00 37 1011.7
20260502193824 63 232 4.0 6.0 0.00 0.00 0.00 37 1011.9
20260502192916 63 215 5.0 8.0 0.00 0.00 0.00 36 1012.0
20260502191824 63 211 4.0 7.0 0.00 0.00 0.00 38 1012.2
20260502190816 61 252 4.0 8.0 0.00 0.00 0.00 37 1012.6
20260502185824 60 272 5.0 9.0 0.00 0.00 0.00 37 1012.9
20260502184816 62 243 5.0 7.0 0.00 0.00 0.00 37 1012.9
20260502183836 60 256 5.0 10.0 0.00 0.00 0.00 38 1012.9
20260502182816 61 218 3.0 6.0 0.00 0.00 0.00 37 1013.3
20260502181824 60 199 6.0 14.0 0.00 0.00 0.00 38 1013.4
20260502180816 60 213 5.0 7.0 0.00 0.00 0.00 39 1013.4
20260502163824 57 236 4.0 8.0 0.00 0.00 0.00 38 1015.0
20260502162836 57 189 5.0 8.0 0.00 0.00 0.00 39 1015.0
20260502161824 57 30 5.0 8.0 0.00 0.00 0.00 39 1015.2
20260502160817 56 232 5.0 9.0 0.00 0.00 0.00 41 1015.4
20260502151825 54 275 4.0 8.0 0.00 0.00 0.00 45 1015.9
20260502150816 53 273 3.0 6.0 0.00 0.00 0.00 47 1016.1
20260502122816 40 173 0.0 1.0 0.00 0.00 0.00 75 1016.7
20260502121845 39 248 1.0 2.0 0.00 0.00 0.00 77 1016.7
20260502120816 38 231 1.0 2.0 0.00 0.00 0.00 81 1016.7
20260502115824 35 212 0.0 1.0 0.00 0.00 0.00 88 1016.6
20260502114817 33 253 1.0 1.0 0.00 0.00 0.00 93 1016.7
20260502113825 31 0.0 0.0 0.00 0.00 0.00 96 1016.7
20260502112817 30 0.0 0.0 0.00 0.00 0.00 96 1016.6
20260502111824 30 0.0 0.0 0.00 0.00 0.00 95 1016.5
20260502110816 30 0.0 0.0 0.00 0.00 0.00 95 1016.5
20260502105824 30 0.0 0.0 0.00 0.00 0.00 94 1016.5
20260502104817 30 0.0 0.0 0.00 0.00 0.00 94 1016.5
20260502103825 30 0.0 0.0 0.00 0.00 0.00 96 1016.4
20260502102817 29 0.0 0.0 0.00 0.00 0.00 96 1016.3
20260502101824 29 0.0 0.0 0.00 0.00 0.00 96 1016.4
20260502100816 29 0.0 0.0 0.00 0.00 0.00 95 1016.5
20260502090816 31 167 0.0 1.0 0.00 0.00 0.00 93 1016.2
20260502070816 33 0.0 0.0 0.00 0.00 0.00 85 1016.5
20260502065844 34 0.0 0.0 0.00 0.00 0.00 83 1016.5
20260502064817 34 0.0 0.0 0.00 0.00 0.00 84 1016.5
20260502063824 35 0.0 0.0 0.00 0.00 0.00 84 1016.6
20260502062817 35 0.0 0.0 0.00 0.00 0.00 80 1016.7
20260502061825 36 0.0 0.0 0.00 0.00 0.00 79 1016.6
20260502060816 36 0.0 0.0 0.00 0.00 0.00 79 1016.6
20260502055824 37 0.0 0.0 0.00 0.00 0.00 77 1016.7
20260502054817 37 0.0 0.0 0.00 0.00 0.00 77 1016.6
20260502053845 37 0.0 0.0 0.00 0.00 0.00 79 1016.7
20260502052816 37 0.0 0.0 0.00 0.00 0.00 75 1016.8
20260502051825 37 0.0 0.0 0.00 0.00 0.00 75 1016.7
20260502050816 36 0.0 0.0 0.00 0.00 0.00 80 1016.7
20260502045825 36 0.0 0.0 0.00 0.00 0.00 81 1016.8
20260502044837 35 0.0 0.0 0.00 0.00 0.00 81 1016.7
20260502043825 34 0.0 0.0 0.00 0.00 0.00 83 1016.7
20260502042817 35 0.0 0.0 0.00 0.00 0.00 80 1016.7
20260502041824 35 0.0 0.0 0.00 0.00 0.00 79 1016.8
20260502040817 35 0.0 0.0 0.00 0.00 0.00 75 1016.6
20260502035825 36 0.0 0.0 0.00 0.00 0.00 73 1016.8
20260502034817 37 0.0 0.0 0.00 0.00 0.00 73 1016.7
20260502033825 38 0.0 0.0 0.00 0.00 0.00 71 1016.8
20260502032816 38 0.0 0.0 0.00 0.00 0.00 70 1016.8
20260502031825 39 0.0 0.0 0.00 0.00 0.00 66 1016.6
20260502030817 38 0.0 0.0 0.00 0.00 0.00 65 1016.7
20260502025825 40 0.0 0.0 0.00 0.00 0.00 61 1016.8
20260502024817 41 0.0 0.0 0.00 0.00 0.00 59 1016.7
20260502023825 42 0.0 0.0 0.00 0.00 0.00 57 1016.6
20260502022816 43 0.0 0.0 0.00 0.00 0.00 57 1016.7
20260502021824 43 0.0 0.0 0.00 0.00 0.00 54 1016.7
20260502020837 44 0.0 0.0 0.00 0.00 0.00 51 1016.6
20260502015825 46 0.0 0.0 0.00 0.00 0.00 48 1016.4
20260502014817 47 0.0 0.0 0.00 0.00 0.00 45 1016.3
20260502013825 48 0.0 0.0 0.00 0.00 0.00 42 1016.2
20260502012816 49 207 0.0 1.0 0.00 0.00 0.00 40 1016.2
20260502011824 50 225 1.0 1.0 0.00 0.00 0.00 39 1016.1
20260502010817 51 235 1.0 1.0 0.00 0.00 0.00 37 1016.1
20260502005845 52 249 2.0 3.0 0.00 0.00 0.00 36 1016.0
20260502004817 53 99 1.0 2.0 0.00 0.00 0.00 35 1016.1
20260502003825 53 136 1.0 1.0 0.00 0.00 0.00 34 1016.0
20260502002817 54 207 1.0 2.0 0.00 0.00 0.00 34 1016.1
20260502001825 53 286 1.0 2.0 0.00 0.00 0.00 35 1016.0
20260502000817 52 318 3.0 4.0 0.00 0.00 0.00 36 1016.1
20260501235945 53 317 4.0 7.0 0.00 0.00 0.00 34 1015.9
20260501234817 54 23 2.0 4.0 0.00 0.00 0.00 34 1015.9
20260501233824 53 259 2.0 4.0 0.00 0.00 0.00 37 1015.9
20260501232836 53 334 3.0 6.0 0.00 0.00 0.00 35 1016.0
20260501231824 54 38 4.0 7.0 0.00 0.00 0.00 34 1016.0
20260501230817 54 255 4.0 7.0 0.00 0.00 0.00 34 1016.0
20260501225825 53 8 5.0 7.0 0.00 0.00 0.00 33 1016.1
20260501224817 52 8 5.0 8.0 0.00 0.00 0.00 34 1016.1
20260501223825 52 18 4.0 6.0 0.00 0.00 0.00 35 1016.2